Regional Weather Roundup
Issued by NWS

Home | Current Version | Previous Version | Text Only | Print | Product List | Glossary On
Versions: 1 2 3 4 5 6 7 8 9 10 11 12 13 14 15 16 17 18 19 20 21 22 23 24 25 26 27 28
000
ASUS45 KCYS 250310
RWRWY

WYOMING REGIONAL WEATHER ROUNDUP
NATIONAL WEATHER SERVICE CHEYENNE WY
800 PM MST SAT FEB 24 2018

NOTE:  "FAIR" INDICATES FEW OR NO CLOUDS BELOW 12,000 FEET
WITH NO SIGNIFICANT WEATHER AND/OR OBSTRUCTIONS TO VISIBILITY.

WYZ001-250400-
YELLOWSTONE NATIONAL PARK

CITY           SKY/WX    TMP DP  RH WIND       PRES   REMARKS
LK YELLOWSTONE   N/A      6   3  87 CALM      29.71S
W YELLOWSTONE  NOT AVBL

$$
WYZ002>013-054>058-071-098>099-250400-
NORTHERN WYOMING

CITY           SKY/WX    TMP DP  RH WIND       PRES   REMARKS
JACKSON        FLURRIES  15  12  88 S10       29.79S WCI   2
CODY           FAIR      24   4  42 CALM      29.72F
GREYBULL       FAIR      12   6  77 SE3       29.77R
WORLAND        FAIR      15   4  61 SE13      29.74S WCI   1
SHERIDAN       FAIR      11  -1  58 CALM      29.70S
BUFFALO        FAIR      17  -3  41 SW5       29.68S WCI  10
GILLETTE       FAIR      18   3  52 SW14      29.69S WCI   4
HULETT         FAIR      21   7  53 MISG      29.68S
NEWCASTLE      FAIR      12   3  67 N7        29.72F WCI   2

$$
WYZ014>020-022>026-101>103-250400-
CENTRAL WYOMING

CITY           SKY/WX    TMP DP  RH WIND       PRES   REMARKS
BIG PINEY      CLOUDY     9   2  73 NW7       29.80R WCI  -2
PINEDALE       CLOUDY    12   5  73 S5        29.80R WCI   4
DUBOIS           N/A    N/A N/A N/A MISG        N/A
LANDER         FAIR      24  -1  33 NW9       29.73R WCI  14
RIVERTON       FAIR      20   1  43 W8        29.74R WCI  10
CASPER         FAIR      19  10  68 SW22      29.75S WCI   2
DOUGLAS        FAIR      17   7  64 MISG      29.75S

$$
WYZ021-027>030-104>119-250400-
SOUTHERN WYOMING

CITY           SKY/WX    TMP DP  RH WIND       PRES   REMARKS
EVANSTON       FAIR      12   9  87 SW16      29.84S WCI  -5
ROCK SPRINGS   CLOUDY    16  10  77 SW13      29.84S WCI   2
DIXON          CLOUDY    18   9  68 S14       29.89S WCI   4
RAWLINS        CLOUDY    16  10  77 W21G31    29.80S WCI  -1
SARATOGA       CLOUDY    16   9  73 SW22G29   29.81S WCI  -2
LARAMIE        FAIR      15   1  53 W20G28    29.75R WCI  -2
CHEYENNE       FAIR      21   2  43 W33G43    29.74F WCI   2
TORRINGTON     FAIR      25  10  53 W18       29.76F WCI  11
PINE BLUFFS    FAIR      19   9  63 W7        29.79F WCI  10

$$




USA.gov is the U.S. government's official web portal to all federal, state and local government web resources and services.